Location: Unspecified
(0.0000°N, 0.0000°E)
Time: 12:39:39
(UTC+00:00)

Envisat - Pass Details

Date: 19 April 2018
Orbit: 764 x 766 km, 98.2° (Epoch: 18 July)

Event Time Altitude Azimuth Distance (km) Brightness Sun altitude
Exits shadow 20:14:35 40° 308° (NW) 1,119 4.1 -33.1°
Drops below altitude 10° 20:18:01 10° 335° (NNW) 2,290 5.8 -34.0°
Sets 20:20:22 0° 339° (NNW) 3,213 6.6 -34.5°
